Temp
-18 -18 -17 -17 -17 -18 -18 -18 -18 -17 -17 -17 -16 -15 -15 -15 -15 -15 -14 -14 -13 -13 -12 -11 -11 -11 -11 -11 -11 -11 -11 -11 -11 -11 -11 -11 -12 -11 -11 -11 -11 -11 -11 -11
-18 -18 -18 -18 -18 -18 -18 -18 -18 -18 -17 -17 -16 -15 -15 -15 -15 -15 -15 -14 -14 -13 -12 -11 -11 -11 -11 -11 -11 -11 -11 -11 -11 -12 -11 -11 -11 -12 -12 -11 -11 -11 -11 -11
-19 -18 -18 -18 -18 -18 -18 -18 -18 -18 -16 -16 -17 -16 -15 -14 -14 -15 -15 -14 -14 -13 -12 -12 -11 -11 -11 -11 -11 -11 -11 -11 -11 -12 -12 -12 -11 -11 -12 -11 -11 -11 -11 -11
-19 -18 -18 -18 -18 -18 -18 -18 -18 -17 -17 -17 -17 -16 -16 -16 -15 -15 -15 -14 -13 -12 -12 -12 -11 -11 -11 -11 -11 -11 -11 -12 -12 -12 -12 -12 -12 -11 -11 -11 -11 -12 -12 -12
-18 -18 -18 -18 -18 -18 -18 -18 -18 -17 -17 -17 -17 -17 -16 -16 -15 -15 -14 -14 -13 -13 -12 -12 -12 -11 -11 -11 -11 -11 -11 -12 -12 -12 -12 -11 -11 -11 -11 -11 -11 -11 -11 -12
-18 -18 -18 -18 -18 -18 -18 -18 -18 -18 -17 -17 -17 -16 -16 -15 -15 -15 -14 -14 -13 -13 -13 -12 -12 -12 -11 -11 -11 -11 -11 -12 -12 -12 -12 -11 -11 -11 -11 -11 -11 -11 -11 -11
-19 -19 -18 -18 -18 -18 -18 -18 -18 -18 -17 -16 -16 -17 -16 -15 -15 -14 -14 -14 -13 -13 -13 -12 -12 -12 -12 -12 -12 -12 -12 -12 -12 -12 -12 -11 -11 -11 -11 -11 -11 -11 -12 -12
-19 -19 -18 -18 -18 -18 -18 -18 -18 -18 -17 -16 -16 -16 -16 -15 -15 -14 -14 -14 -14 -13 -13 -13 -13 -12 -12 -12 -12 -12 -12 -12 -12 -12 -12 -11 -12 -12 -12 -12 -12 -12 -12 -12
-19 -18 -18 -18 -18 -18 -18 -18 -18 -18 -17 -16 -16 -16 -15 -15 -15 -15 -14 -14 -14 -13 -13 -13 -13 -12 -12 -12 -12 -12 -12 -12 -12 -12 -12 -12 -12 -12 -12 -12 -12 -12 -12 -12
-18 -18 -18 -18 -18 -18 -18 -18 -18 -18 -18 -17 -16 -16 -16 -15 -15 -15 -15 -14 -14 -13 -13 -13 -12 -12 -12 -12 -12 -12 -12 -12 -12 -12 -12 -12 -12 -12 -12 -12 -12 -12 -12 -13
-19 -18 -18 -18 -18 -18 -18 -18 -18 -18 -18 -18 -17 -16 -16 -16 -15 -15 -15 -15 -14 -14 -13 -13 -13 -12 -12 -12 -12 -12 -12 -12 -12 -12 -12 -12 -12 -12 -12 -12 -12 -12 -13 -14
-18 -18 -18 -18 -18 -18 -18 -18 -18 -18 -17 -18 -18 -17 -16 -16 -16 -15 -15 -15 -14 -14 -13 -13 -13 -13 -13 -13 -13 -13 -13 -12 -12 -12 -12 -12 -12 -12 -12 -12 -12 -13 -13 -13
-19 -18 -18 -18 -18 -18 -18 -18 -18 -17 -17 -17 -18 -17 -16 -16 -16 -16 -15 -15 -15 -15 -14 -14 -14 -14 -14 -14 -13 -13 -13 -13 -13 -13 -13 -12 -12 -13 -12 -12 -13 -13 -13 -13
-19 -19 -18 -18 -18 -18 -18 -18 -18 -17 -17 -18 -18 -17 -16 -17 -16 -16 -16 -15 -15 -15 -15 -15 -14 -14 -14 -14 -13 -13 -13 -13 -13 -13 -13 -13 -13 -13 -13 -13 -13 -13 -13 -14
-19 -19 -19 -18 -18 -18 -18 -18 -17 -17 -18 -17 -17 -17 -16 -16 -16 -16 -16 -16 -16 -15 -15 -15 -14 -14 -14 -14 -13 -14 -13 -13 -13 -13 -13 -13 -13 -13 -13 -13 -13 -14 -14 -14
-19 -19 -19 -19 -19 -18 -18 -18 -17 -17 -17 -17 -17 -17 -17 -17 -17 -16 -16 -16 -16 -15 -15 -15 -14 -14 -14 -14 -14 -14 -14 -14 -13 -13 -13 -13 -13 -14 -14 -14 -14 -14 -14 -14
-19 -20 -19 -19 -19 -19 -19 -18 -18 -18 -18 -18 -18 -18 -17 -17 -17 -17 -16 -16 -16 -15 -15 -15 -15 -15 -15 -14 -14 -14 -14 -14 -14 -14 -14 -14 -14 -14 -14 -14 -14 -14 -14 -15
-20 -20 -20 -19 -19 -19 -19 -19 -18 -18 -18 -18 -18 -18 -17 -17 -17 -17 -16 -16 -16 -16 -16 -15 -15 -15 -15 -15 -15 -15 -15 -14 -14 -14 -14 -14 -14 -14 -14 -14 -14 -15 -15 -15
-20 -20 -20 -19 -19 -19 -19 -19 -18 -18 -18 -18 -18 -17 -17 -17 -17 -16 -16 -16 -16 -16 -16 -15 -15 -15 -15 -15 -15 -15 -15 -15 -14 -15 -15 -15 -14 -15 -15 -15 -15 -15 -15 -15
-19 -19 -19 -19 -19 -19 -19 -19 -18 -18 -18 -18 -17 -17 -17 -17 -17 -17 -17 -17 -16 -16 -16 -16 -15 -15 -15 -15 -15 -15 -15 -15 -15 -15 -15 -15 -15 -15 -15 -15 -16 -15 -16 -15
-19 -19 -19 -19 -18 -18 -19 -18 -18 -18 -18 -17 -17 -17 -17 -17 -17 -17 -17 -17 -16 -16 -16 -16 -16 -16 -16 -16 -16 -15 -15 -15 -15 -15 -15 -16 -16 -16 -16 -16 -16 -16 -16 -16
-19 -19 -19 -19 -19 -19 -19 -18 -18 -18 -18 -18 -18 -17 -17 -17 -18 -17 -17 -17 -17 -17 -17 -16 -16 -16 -16 -16 -16 -16 -16 -16 -16 -16 -16 -16 -16 -16 -16 -16 -16 -16 -16 -17
-19 -19 -19 -19 -19 -19 -19 -18 -18 -18 -18 -18 -18 -17 -18 -18 -18 -18 -17 -17 -17 -17 -17 -17 -16 -16 -16 -16 -16 -16 -16 -17 -17 -16 -16 -16 -17 -16 -16 -16 -16 -17 -17 -17
-19 -19 -19 -19 -19 -19 -18 -18 -18 -18 -18 -18 -18 -18 -18 -18 -18 -18 -18 -18 -17 -17 -17 -17 -17 -17 -17 -17 -17 -17 -17 -17 -17 -17 -17 -17 -17 -17 -17 -17 -17 -17 -17 -18
-19 -20 -20 -19 -19 -19 -19 -18 -18 -18 -18 -18 -18 -18 -18 -18 -18 -18 -18 -18 -18 -17 -17 -17 -17 -17 -17 -17 -17 -17 -17 -17 -17 -17 -17 -17 -17 -17 -17 -17 -17 -17 -18 -18
-20 -20 -20 -20 -19 -19 -19 -19 -19 -19 -18 -18 -18 -18 -18 -18 -18 -18 -18 -18 -18 -18 -17 -17 -17 -17 -17 -17 -17 -17 -17 -18 -18 -17 -17 -17 -17 -18 -18 -18 -18 -18 -18 -18
Height
5633 5641 5653 5665 5672 5678 5683 5686 5693 5701 5707 5713 5723 5729 5735 5742 5749 5755 5760 5766 5772 5779 5784 5787 5794 5798 5801 5802 5804 5806 5807 5809 5809 5810 5811 5814 5814 5812 5812 5813 5812 5812 5812 5809
5632 5644 5653 5660 5668 5673 5678 5680 5689 5694 5700 5711 5716 5724 5729 5735 5744 5750 5754 5760 5766 5772 5776 5783 5788 5789 5791 5794 5796 5799 5800 5801 5803 5803 5803 5802 5808 5810 5806 5805 5805 5803 5802 5801
5635 5645 5650 5658 5664 5671 5674 5678 5685 5690 5698 5706 5712 5716 5723 5729 5738 5745 5751 5755 5760 5765 5770 5774 5779 5782 5784 5788 5788 5790 5791 5793 5795 5796 5797 5797 5795 5800 5801 5799 5796 5794 5792 5791
5631 5642 5650 5656 5663 5668 5672 5676 5681 5686 5696 5702 5707 5712 5717 5723 5731 5738 5744 5749 5755 5760 5763 5767 5771 5774 5777 5778 5780 5782 5784 5786 5787 5788 5790 5789 5789 5788 5791 5791 5788 5786 5783 5781
5635 5645 5649 5653 5659 5664 5669 5671 5677 5686 5690 5694 5702 5708 5714 5720 5726 5733 5739 5744 5749 5753 5756 5760 5763 5766 5769 5771 5773 5775 5777 5778 5780 5780 5781 5781 5781 5780 5779 5779 5779 5777 5775 5774
5635 5641 5647 5650 5656 5659 5665 5668 5675 5680 5683 5691 5698 5705 5709 5717 5724 5729 5734 5739 5742 5746 5749 5753 5755 5758 5761 5762 5764 5766 5768 5770 5771 5771 5771 5772 5771 5770 5769 5768 5768 5766 5764 5762
5636 5641 5645 5648 5652 5656 5661 5664 5670 5675 5679 5687 5694 5699 5705 5710 5718 5724 5728 5732 5736 5739 5742 5745 5748 5750 5752 5754 5755 5757 5759 5760 5761 5762 5762 5762 5761 5761 5760 5759 5758 5756 5753 5751
5636 5640 5644 5647 5652 5658 5659 5663 5666 5671 5677 5685 5689 5694 5699 5703 5711 5718 5722 5726 5728 5732 5735 5737 5740 5743 5745 5746 5747 5748 5749 5750 5751 5751 5752 5752 5752 5751 5750 5749 5748 5746 5743 5740
5636 5639 5642 5646 5651 5655 5657 5659 5664 5670 5674 5680 5684 5690 5695 5698 5705 5711 5715 5718 5722 5725 5728 5729 5732 5734 5736 5737 5738 5739 5740 5741 5742 5742 5743 5743 5743 5742 5741 5739 5737 5736 5733 5730
5638 5638 5640 5644 5648 5652 5655 5659 5661 5665 5670 5675 5679 5684 5690 5695 5699 5704 5708 5712 5715 5718 5720 5722 5724 5725 5727 5728 5729 5730 5731 5733 5734 5734 5735 5735 5734 5733 5732 5730 5728 5726 5723 5719
5637 5640 5643 5644 5646 5649 5652 5656 5659 5663 5668 5671 5673 5678 5683 5688 5691 5695 5699 5703 5707 5710 5712 5715 5716 5717 5718 5719 5721 5722 5724 5725 5725 5726 5726 5725 5725 5724 5723 5720 5718 5715 5711 5708
5637 5639 5641 5644 5645 5648 5651 5654 5658 5661 5665 5667 5669 5674 5678 5683 5686 5689 5692 5694 5697 5701 5704 5706 5707 5708 5710 5711 5713 5715 5716 5716 5716 5717 5717 5716 5716 5715 5713 5711 5708 5705 5701 5698
5637 5638 5640 5641 5645 5646 5649 5652 5655 5659 5662 5664 5667 5668 5674 5676 5679 5681 5685 5687 5690 5692 5695 5698 5700 5701 5703 5705 5706 5707 5708 5709 5709 5709 5709 5709 5708 5706 5705 5702 5699 5697 5694 5690
5634 5635 5637 5640 5643 5645 5647 5649 5652 5656 5658 5662 5663 5665 5668 5672 5674 5677 5680 5682 5684 5687 5689 5691 5693 5695 5696 5698 5699 5700 5700 5701 5702 5702 5702 5701 5700 5698 5698 5696 5694 5691 5686 5682
5630 5632 5635 5637 5639 5641 5643 5645 5648 5652 5655 5655 5659 5661 5663 5667 5670 5673 5674 5676 5679 5681 5683 5685 5687 5688 5689 5690 5692 5692 5693 5693 5694 5695 5694 5694 5693 5693 5692 5689 5686 5683 5679 5675
5629 5631 5632 5633 5635 5637 5640 5642 5643 5647 5648 5652 5655 5656 5660 5664 5667 5668 5670 5672 5675 5677 5678 5679 5680 5681 5683 5683 5684 5685 5687 5687 5687 5687 5687 5688 5687 5686 5684 5682 5679 5675 5672 5669
5625 5627 5628 5631 5631 5633 5636 5637 5639 5641 5643 5646 5649 5654 5656 5660 5662 5663 5665 5666 5668 5669 5671 5673 5674 5675 5676 5677 5679 5680 5680 5680 5680 5680 5681 5681 5680 5678 5677 5674 5672 5669 5666 5662
5621 5623 5624 5627 5627 5630 5633 5633 5635 5637 5640 5644 5646 5649 5652 5655 5657 5658 5659 5661 5662 5664 5665 5667 5669 5670 5672 5673 5673 5673 5673 5674 5673 5674 5674 5674 5673 5671 5669 5668 5665 5663 5660 5656
5619 5621 5622 5623 5626 5628 5629 5631 5633 5634 5638 5640 5642 5646 5648 5650 5652 5653 5655 5657 5658 5660 5661 5663 5665 5666 5666 5664 5665 5666 5667 5667 5666 5667 5667 5667 5665 5664 5663 5662 5659 5657 5654 5650
5616 5618 5620 5622 5623 5624 5628 5629 5630 5632 5635 5637 5640 5642 5644 5646 5648 5650 5651 5653 5654 5655 5657 5657 5657 5657 5657 5658 5659 5660 5660 5660 5660 5660 5660 5660 5659 5659 5658 5656 5654 5651 5648 5644
5612 5614 5616 5618 5620 5622 5625 5626 5628 5631 5636 5634 5636 5637 5639 5641 5643 5644 5645 5646 5647 5648 5649 5650 5651 5652 5652 5652 5652 5652 5653 5653 5654 5654 5653 5653 5653 5653 5652 5650 5648 5646 5642 5638
5609 5610 5612 5614 5616 5620 5621 5623 5626 5628 5628 5630 5631 5633 5634 5636 5637 5639 5640 5641 5643 5645 5646 5646 5647 5647 5647 5647 5646 5646 5647 5647 5647 5647 5647 5647 5647 5647 5646 5645 5643 5639 5636 5633
5605 5606 5609 5611 5612 5615 5617 5619 5621 5622 5624 5626 5627 5629 5630 5632 5633 5634 5635 5637 5639 5641 5642 5642 5642 5642 5642 5642 5642 5641 5642 5642 5642 5642 5642 5642 5641 5641 5640 5639 5637 5634 5631 5628
5598 5600 5603 5604 5607 5609 5611 5614 5616 5617 5620 5621 5623 5623 5625 5627 5628 5630 5632 5633 5635 5636 5637 5637 5637 5637 5638 5638 5637 5637 5637 5637 5637 5637 5637 5637 5636 5636 5635 5633 5631 5628 5625 5621
5593 5594 5596 5598 5600 5602 5605 5607 5610 5611 5613 5615 5617 5618 5619 5621 5624 5626 5627 5629 5630 5631 5631 5632 5632 5633 5633 5633 5633 5633 5633 5632 5632 5632 5632 5632 5632 5631 5630 5627 5625 5622 5619 5616
5588 5589 5591 5592 5595 5596 5599 5600 5602 5604 5605 5608 5610 5612 5613 5616 5618 5620 5621 5623 5624 5625 5626 5626 5627 5628 5628 5628 5628 5628 5627 5627 5627 5627 5627 5627 5626 5625 5624 5621 5619 5616 5613 5610
Wind_Speed
42 40 42 40 38 38 38 43 45 47 48 48 46 47 45 41 38 39 45 43 42 40 40 40 38 37 38 40 40 39 39 39 39 40 40 38 37 41 43 42 43 42 41 42
40 45 44 39 36 36 41 41 46 45 48 44 46 45 49 47 40 40 41 41 42 42 43 40 39 42 43 42 42 41 41 42 41 41 42 44 40 37 42 44 43 44 45 45
40 33 37 37 36 33 38 42 45 47 46 41 39 40 42 51 45 39 39 40 41 40 41 41 41 42 43 43 44 44 43 42 42 43 42 43 46 40 38 43 46 46 48 48
46 36 34 34 37 33 38 43 40 46 42 41 39 39 35 34 42 41 38 37 37 37 37 36 37 39 40 40 38 38 38 40 41 42 42 43 43 45 41 42 46 47 49 50
34 41 36 35 35 29 37 41 43 41 43 44 40 39 36 36 33 38 37 36 33 34 33 33 32 31 32 33 33 34 35 36 39 39 40 41 42 43 44 44 44 45 46 47
30 32 31 28 30 36 31 36 39 38 43 44 40 39 38 37 33 32 33 33 32 33 32 31 33 34 35 35 35 34 34 34 36 37 39 39 40 42 42 44 44 44 45 46
24 26 28 26 19 26 26 30 37 38 42 42 41 41 40 37 36 33 33 33 34 34 33 35 36 36 35 34 34 35 35 36 38 38 39 39 40 40 40 40 41 44 46 47
19 16 25 27 29 26 31 27 36 38 40 40 42 42 40 40 38 36 34 34 35 36 36 36 35 35 34 35 36 37 38 38 38 38 38 37 36 37 39 41 42 43 44 46
18 16 25 30 26 23 24 28 30 34 36 39 40 43 41 43 38 35 35 36 36 35 34 35 36 36 36 37 37 37 37 37 36 36 35 35 36 37 38 38 39 42 44 46
12 8 22 25 29 31 25 19 27 32 33 36 41 42 42 41 41 38 36 34 33 33 32 32 32 35 37 38 38 37 36 35 34 34 34 35 35 34 35 36 38 39 41 43
8 11 14 19 24 25 18 32 23 24 30 31 32 35 36 35 35 35 35 38 40 37 36 37 38 37 36 36 36 35 34 32 31 32 32 30 30 32 34 35 35 36 35 36
10 10 8 8 17 23 19 28 29 29 23 26 31 33 32 32 31 29 30 32 34 36 38 39 40 39 37 34 32 30 30 30 30 29 28 28 30 31 31 28 28 23 22 26
11 12 14 15 13 19 22 21 21 21 22 22 26 26 23 24 27 27 28 30 30 31 32 32 32 30 29 28 28 29 30 30 29 28 30 32 29 27 23 21 18 24 28 27
13 12 16 18 14 16 18 21 22 23 25 21 22 22 17 22 23 24 23 24 25 26 27 27 27 26 26 27 27 28 28 27 27 28 28 27 26 23 22 22 24 26 24 26
13 13 16 19 20 21 20 21 21 19 20 27 28 27 25 22 23 19 23 25 24 24 24 25 24 25 26 26 27 26 24 25 26 26 25 24 25 25 25 23 25 26 25 27
16 15 16 18 21 22 23 24 22 20 22 23 28 32 28 26 22 24 23 23 24 24 23 23 23 23 24 24 23 23 24 25 25 24 25 25 27 26 24 26 27 26 27 25
15 14 15 15 17 19 19 21 21 22 23 25 26 25 23 20 20 22 20 22 22 22 22 22 22 22 22 23 24 22 21 22 23 22 22 23 25 28 26 24 23 24 27 29
16 16 16 14 17 18 17 16 17 19 21 19 20 20 18 19 19 19 21 21 22 22 22 22 22 21 21 23 24 22 22 24 25 24 24 24 26 24 23 23 23 24 25 23
17 16 17 19 16 15 16 15 14 16 17 18 19 18 19 19 19 20 20 20 20 21 22 23 22 21 21 20 21 24 25 24 24 26 25 24 22 20 21 22 23 20 22 25
18 18 17 17 17 18 14 16 16 15 17 18 19 19 18 18 19 19 19 19 19 19 21 21 20 21 22 23 23 21 23 22 23 22 22 22 19 19 21 21 19 22 24 25
15 16 17 18 17 17 14 17 18 18 14 16 17 17 18 18 17 17 18 18 16 15 14 14 15 16 17 20 22 23 22 24 24 24 24 19 20 21 20 19 21 23 24 24
19 18 16 17 16 17 15 17 17 16 15 16 16 17 18 18 18 18 17 16 15 15 14 13 14 13 14 17 18 19 20 21 22 22 20 18 19 19 18 19 21 21 23 24
23 25 24 23 21 19 19 19 19 19 19 17 18 18 18 19 19 18 17 17 16 17 15 15 15 15 15 16 16 16 19 19 18 19 18 18 17 18 18 20 20 21 22 24
22 23 23 26 28 27 26 24 23 23 21 19 19 19 19 20 20 21 19 18 18 17 16 15 16 16 17 16 15 15 15 16 16 17 18 18 17 18 19 20 20 21 23 23
16 19 23 24 24 27 27 28 27 28 27 24 24 23 22 22 22 23 22 20 20 19 18 18 16 17 16 16 17 16 16 16 17 17 18 17 17 19 20 20 22 23 23 24
17 17 15 17 18 22 23 25 26 27 28 27 27 26 25 25 24 23 23 23 23 21 19 19 19 19 17 18 19 18 19 18 17 17 16 17 18 20 22 24 25 25 25 25
Wind_Direction
209 207 213 219 223 223 228 225 222 222 225 227 225 223 222 221 227 230 226 231 234 239 240 239 241 247 249 250 253 256 259 263 264 267 269 269 271 277 281 281 284 288 288 287
203 218 213 213 216 221 226 226 219 222 224 228 229 226 222 224 217 225 231 234 235 240 244 243 245 247 250 253 255 258 259 261 262 262 267 271 267 268 276 282 284 283 283 283
203 197 201 210 216 227 227 221 216 221 222 223 226 231 226 222 223 228 234 236 238 240 246 247 248 249 252 254 254 255 256 258 258 261 263 268 273 272 272 277 279 280 283 283
211 206 209 214 218 229 225 221 222 219 219 220 223 230 230 227 221 226 230 234 237 241 244 245 246 247 250 251 252 253 254 255 257 259 262 266 270 275 273 271 274 278 280 281
180 195 204 210 214 215 219 221 222 217 217 218 219 229 225 228 226 220 225 231 234 235 238 242 245 248 251 253 254 255 254 254 255 258 261 265 270 274 277 277 276 276 276 277
186 193 208 210 189 205 222 224 221 219 220 220 222 225 231 226 228 230 230 238 241 243 244 249 256 255 256 257 258 258 257 259 260 263 266 269 271 273 275 277 279 280 280 281
191 200 207 196 203 188 216 228 220 222 220 220 222 227 232 231 225 228 233 239 243 248 250 251 253 254 256 259 261 262 263 263 265 267 269 270 272 273 275 277 279 279 280 282
192 191 198 199 205 211 226 230 222 224 223 222 223 227 229 239 234 236 240 242 244 248 250 252 253 254 255 256 258 259 261 263 266 268 270 272 273 275 277 279 282 286 286 286
197 223 207 200 205 219 227 223 220 224 229 224 225 229 230 239 239 235 238 243 246 251 252 252 254 255 256 256 257 259 262 264 266 267 270 272 274 277 281 284 283 284 288 289
161 166 193 209 210 211 209 216 215 218 226 232 234 237 236 238 241 240 240 243 244 246 249 251 253 254 254 256 259 260 262 264 266 268 270 272 276 277 277 282 286 289 290 294
164 163 170 192 195 207 215 223 214 218 226 232 235 233 232 236 240 243 244 245 246 250 249 251 250 250 254 257 259 261 263 265 267 268 272 273 274 280 284 289 291 291 296 302
204 206 211 197 203 216 221 217 216 224 237 231 237 244 243 243 245 247 244 242 240 240 243 244 247 250 254 257 260 262 265 266 269 269 267 272 282 286 290 288 292 295 306 312
220 214 216 212 210 207 212 214 219 227 234 231 232 241 235 235 234 237 239 241 241 242 244 246 249 251 253 256 259 262 265 266 263 264 269 279 285 283 279 289 287 295 299 310
236 228 223 223 220 217 215 220 230 231 235 231 236 242 239 235 239 237 239 240 241 243 244 246 248 251 254 258 262 262 261 260 262 272 275 280 275 271 278 283 285 291 299 306
239 238 228 219 218 219 223 231 237 241 237 235 235 239 239 241 241 242 240 243 244 243 248 252 256 260 259 260 258 256 257 263 268 273 276 274 264 269 273 287 292 292 305 303
242 234 236 227 223 225 227 230 233 229 231 229 233 241 240 243 243 238 242 245 246 249 253 256 258 258 255 253 253 258 263 269 272 271 271 272 265 270 283 284 292 292 300 303
240 237 237 233 235 232 228 231 225 224 222 216 227 234 236 237 234 240 243 248 253 255 256 256 260 259 259 257 258 259 263 269 270 273 268 268 273 277 279 282 289 300 295 302
248 242 246 239 239 233 222 229 225 219 219 221 229 235 243 239 241 243 246 250 252 253 250 250 250 252 255 253 255 260 266 272 269 265 270 276 280 282 278 283 292 298 298 306
243 237 245 240 243 236 224 225 225 222 225 224 233 237 239 243 244 246 245 244 246 247 246 249 251 253 257 263 266 261 260 270 270 267 272 276 283 279 280 288 291 294 302 307
238 244 241 237 244 241 226 227 236 233 230 230 233 236 238 241 243 243 242 242 244 245 246 251 258 262 264 266 266 268 263 271 272 265 275 278 279 280 292 287 290 302 304 309
241 244 239 245 241 245 228 226 230 235 237 242 241 243 244 244 243 241 243 247 251 253 256 261 266 269 269 268 266 263 265 266 265 268 276 269 274 283 281 289 298 303 307 310
243 243 247 246 244 240 237 233 236 242 247 251 250 249 248 243 242 244 248 251 252 251 251 256 265 275 283 279 275 271 268 264 264 267 267 266 269 275 280 290 298 304 309 312
247 246 247 251 249 247 242 241 240 240 240 245 250 249 247 245 246 248 250 249 247 245 247 266 271 272 281 283 282 278 275 275 274 272 270 266 270 274 282 292 300 306 310 311
250 248 248 246 247 249 251 250 249 248 248 250 254 256 249 247 251 250 249 247 248 244 256 265 273 279 275 279 282 282 279 272 273 270 269 270 270 275 284 290 298 304 310 311
250 249 246 248 248 248 250 253 255 255 256 259 258 255 249 242 246 246 248 246 248 249 256 263 271 275 269 275 277 279 279 276 274 273 272 270 274 281 287 295 300 304 307 311
239 237 246 250 255 255 253 250 249 248 249 250 250 249 244 241 243 249 247 248 247 250 256 263 264 269 271 269 270 275 277 274 271 269 267 272 278 286 296 300 300 301 305 310